STARLINK-33797, 63448

Orbit data source: Space-Track

STARLINK-33797, 63448 is a payload satellite owned by SpaceX/Seattle (US) in LEO that was launched on Fri, 04 Apr 2025 UTC via an FALCON 9 launch vehicle from the Air Force Western Test Range (AFWTR). Payload-class satellites include a variety of spacecraft equipped with specific instruments for various scientific and technological missions. These include communications satellites like Starlink; space stations such as the ISS; scientific satellites like the Hubble; Earth observation satellites from companies like Planet Labs, Umbra, and HawkEye 360; GPS; miniature CubeSats for education and research; and military/defense satellites.

Loading next visibility...
Identifier
63448, 2025-069R
Orbit
LEO
Country
Flag of USUS
Related business
Manufacturer
SpaceX/Seattle
Mission
Operational Commercial Communications
Bus & Motor
STARLINK V2MO, Unknown motor
Mass
575 kg wet, ~530 kg dry
Launch date (UTC)
2025-04-04 (8 months ago)
Launch vehicle
FALCON 9
Launch site
Air Force Western Test Range (AFWTR)
Object type
Payload
Rocket body
Debris
Shape & HBR
Box + 2 Pan, 17.7 m
Radar Cross Section
36.964 m², Large (>1 m²)

Expand to show TLE details & history
Last TLE update: 19 hours ago

TLE from 19 hours ago
0 STARLINK-33797
1 63448U 25069R   25348.82177078  .00014686  00000-0  50703-3 0  9992
2 63448  53.1564 176.4959 0001091  84.9833 275.1293 15.30197698 40369
Epoch: 2025-12-14T19:43Z
TLE epoch observation values (Epoch: 2025-12-14T19:43:20.995Z)
Latitude
0.00005°
Longitude
156.92927°
Altitude
476.054 km
Speed
7.629 km/s
True Right ascension
11h 45m 59s
True Declination
0° 00' 00"
Sunlit
Object was in daylight at epoch
Visualization orbit readout
Latitude
Unknown
Longitude
Unknown
Altitude
Unknown
Speed
Unknown
Apparent Right ascension
Unknown
Apparent Declination
Unknown
Sunlit
N/A
Visualization observer readout
Local Sidereal Time
13:18:48
Azimuth
Unknown
Elevation
Unknown
Doppler factor
Unknown
Orbital elements
Apogee altitude
476.227 km
Perigee altitude
474.731 km
Semi-major axis
6,853.616 km
Eccentricity
0.00011
Inclination
53.1564°
RAAN
176.4959°
Arg. of periapsis
84.9833°
True anomaly
275.11685°
Mean anomaly
275.1293°
Eccentric anomaly
275.12307°
Mean motion
3.82528 °/min
Orbital period
94.11 mins
BSTAR
0.00050703
Loading maneuver chart data...
Computing Atmospheric mass density...
Loading historical data...
Loading historical data...
Loading historical data...
Loading historical data...
Loading historical data...
Loading historical data...
Loading historical data...

Documentation

Showing up to 5 results
|